Zurück zum Katalog

STARLINK-6367

AktivKommunikationVLEO
NORAD 57376·PAYLOAD·🇺🇸 United States

Gestartet Jul 16, 2023 von Cape Canaveral Space Force Station

Loading…

Nächste Überflüge (nächste 24 Stunden)

TLE

AktuellSource: CelesTrak SupGP

Epoche: Sep 15, 2026, 03:06 UTC

1 57376C 23099BA  26258.12965278 -.00024124  00000+0 -87391-3 0  2587
2 57376  42.9992 248.3208 0001185 260.2129  69.0186 15.27585114    19

Verfolge STARLINK-6367 in Echtzeit mit AllMySat

Download on the App Store